TimeCST,TemperatureF,Dew PointF,Humidity,Sea Level PressureIn,VisibilityMPH,Wind Direction,Wind SpeedMPH,Gust SpeedMPH,PrecipitationIn,Events,Conditions,WindDirDegrees,DateUTC
12:56 AM,51.1,39.0,63,30.09,10.0,Variable,5.8,-,N/A,,Scattered Clouds,0,2013-02-19 06:56:00
1:56 AM,52.0,41.0,66,30.05,10.0,South,5.8,-,N/A,,Mostly Cloudy,170,2013-02-19 07:56:00
2:56 AM,54.0,44.1,69,30.01,10.0,South,6.9,-,N/A,,Partly Cloudy,190,2013-02-19 08:56:00
3:56 AM,55.9,46.0,69,29.99,10.0,South,6.9,-,N/A,,Overcast,180,2013-02-19 09:56:00
4:56 AM,57.0,48.0,72,29.98,10.0,South,4.6,-,0.00,,Overcast,170,2013-02-19 10:56:00
5:21 AM,57.2,48.2,72,29.98,10.0,South,4.6,-,0.00,,Overcast,190,2013-02-19 11:21:00
5:56 AM,63.0,54.0,72,30.02,7.0,NW,17.3,25.3,0.00,Rain,Rain,320,2013-02-19 11:56:00
6:05 AM,62.6,55.4,77,30.01,4.0,West,6.9,19.6,0.03,Rain,Heavy Rain,270,2013-02-19 12:05:00
6:38 AM,62.6,55.4,77,30.01,6.0,SW,5.8,-,0.08,Rain,Light Rain,220,2013-02-19 12:38:00
6:47 AM,62.6,55.4,77,30.01,9.0,SW,4.6,-,0.08,Rain,Light Rain,230,2013-02-19 12:47:00
6:56 AM,62.1,57.0,84,30.01,9.0,SW,5.8,-,0.08,Rain,Light Rain,230,2013-02-19 12:56:00
7:18 AM,62.6,57.2,82,30.02,8.0,Variable,5.8,-,0.00,Rain,Light Rain,0,2013-02-19 13:18:00
7:25 AM,62.6,57.2,82,30.04,1.5,West,8.1,-,0.02,Rain,Rain,260,2013-02-19 13:25:00
7:27 AM,62.6,57.2,82,30.04,1.0,WNW,10.4,-,0.05,Rain,Heavy Rain,300,2013-02-19 13:27:00
7:33 AM,62.6,57.2,82,30.04,1.0,NNW,8.1,-,0.06,Rain,Heavy Rain,330,2013-02-19 13:33:00
7:38 AM,62.6,57.2,82,30.05,2.0,NNW,8.1,-,0.06,Rain,Light Rain,330,2013-02-19 13:38:00
7:48 AM,62.6,57.2,82,30.05,2.5,Calm,Calm,-,0.07,Rain,Light Rain,0,2013-02-19 13:48:00
7:50 AM,62.6,57.2,82,30.06,3.0,NW,3.5,-,0.07,Rain,Light Rain,310,2013-02-19 13:50:00
7:56 AM,62.1,57.0,84,30.06,7.0,NNW,4.6,-,0.07,Rain,Light Rain,330,2013-02-19 13:56:00
8:14 AM,62.6,57.2,82,30.07,9.0,Calm,Calm,-,0.00,Rain,Light Rain,0,2013-02-19 14:14:00
8:25 AM,62.6,57.2,82,30.06,10.0,NNW,5.8,-,0.00,,Overcast,330,2013-02-19 14:25:00
8:36 AM,62.6,57.2,82,30.07,10.0,NNW,8.1,-,0.00,,Overcast,340,2013-02-19 14:36:00
8:44 AM,62.6,57.2,82,30.07,10.0,NNW,8.1,-,0.00,,Overcast,330,2013-02-19 14:44:00
8:56 AM,64.0,57.0,78,30.07,10.0,NNW,13.8,19.6,0.00,,Overcast,340,2013-02-19 14:56:00
9:03 AM,62.6,55.4,77,30.08,10.0,NNW,15.0,21.9,N/A,,Overcast,330,2013-02-19 15:03:00
9:11 AM,62.6,53.6,72,30.08,10.0,NNW,11.5,21.9,N/A,,Overcast,340,2013-02-19 15:11:00
9:56 AM,63.0,53.1,70,30.09,10.0,North,12.7,-,N/A,,Overcast,360,2013-02-19 15:56:00
10:56 AM,63.0,52.0,67,30.12,10.0,North,15.0,-,0.01,,Overcast,350,2013-02-19 16:56:00
11:56 AM,61.0,50.0,67,30.12,10.0,NNW,10.4,20.7,N/A,,Overcast,340,2013-02-19 17:56:00
12:46 PM,66.2,48.2,52,30.11,10.0,North,11.5,19.6,N/A,,Scattered Clouds,350,2013-02-19 18:46:00
12:56 PM,66.0,46.0,48,30.10,10.0,NNW,15.0,24.2,N/A,,Partly Cloudy,340,2013-02-19 18:56:00
1:56 PM,68.0,39.0,35,30.08,10.0,North,17.3,23.0,N/A,,Clear,350,2013-02-19 19:56:00
2:56 PM,68.0,34.0,28,30.09,10.0,North,13.8,19.6,N/A,,Clear,350,2013-02-19 20:56:00
3:56 PM,66.9,26.1,21,30.10,10.0,NNW,16.1,20.7,N/A,,Clear,330,2013-02-19 21:56:00
4:56 PM,63.0,27.0,26,30.11,10.0,North,15.0,21.9,N/A,,Clear,350,2013-02-19 22:56:00
6:56 PM,55.0,30.0,38,30.15,10.0,NNW,9.2,-,N/A,,Clear,340,2013-02-20 00:56:00
7:56 PM,53.1,30.0,41,30.16,10.0,NNW,6.9,-,N/A,,Clear,340,2013-02-20 01:56:00
8:56 PM,48.9,28.9,46,30.17,10.0,North,4.6,-,N/A,,Clear,350,2013-02-20 02:56:00
9:56 PM,48.0,28.0,46,30.18,10.0,North,3.5,-,N/A,,Clear,360,2013-02-20 03:56:00
10:56 PM,48.0,26.1,42,30.18,10.0,North,9.2,-,N/A,,Clear,10,2013-02-20 04:56:00
11:56 PM,46.9,25.0,42,30.18,10.0,NNE,8.1,-,N/A,,Clear,20,2013-02-20 05:56:00